Beaufort, NC

11:58 AM EDT on October 14, 2019 (GMT -0400)
Smith

Weather History for KMRH - May, 2019

Change the Weather History Date:

Friday, May 3, 2019

  Actual Average Record
Temperature  
Mean Temperature 72 °F -  
Max Temperature 80 °F 75 °F 87 °F (1959)
Min Temperature 64 °F 55 °F 42 °F (1978)
Cooling Degree Days 6    
Growing Degree Days 22 (Base 50)    
Moisture  
Dew Point 68 °F    
Average Humidity 83    
Maximum Humidity 93    
Minimum Humidity 69    
Precipitation  
Precipitation 0.00 in - - ()
Sea Level Pressure  
Sea Level Pressure 30.07 in    
Wind  
Wind Speed 6 mph (South)    
Max Wind Speed 16 mph    
Max Gust Speed 22 mph    
Visibility 10 miles    
Events      
Averages and records for this station are not official NWS values.
T = Trace of Precipitation, MM = Missing Value Source: NWS Daily Summary

Daily Weather History Graph

Daily Weather History Graph

Search for Another Location

Airport or City:

Astronomy

May. 03, 2019 Rise Set
Actual Time 6:14 AM EDT 7:53 PM EDT
Civil Twilight 5:47 AM EDT 8:20 PM EDT
Nautical Twilight 5:14 AM EDT 8:52 PM EDT
Astronomical Twilight 4:40 AM EDT 9:27 PM EDT
Moon 5:47 AM EDT (5/3) 6:44 PM EDT (5/3)
Length of Visible Light 14h 32m
Length of Day
13h 38m
Waning Crescent, 2% of the Moon is Illuminated
May 3
Waning Crescent
May 4
New
May 11
First Quarter
May 18
Full
May 26
Last Quarter

Hourly Weather History & Observations

Time (EDT) Temp. Dew Point Humidity Pressure Visibility Wind Dir Wind Speed Gust Speed Precip Events Conditions
12:58 AM 71.1 °F 66.0 °F 84% 30.17 in 10.0 mi South 5.8 mph - N/A   Clear
1:58 AM 70.0 °F 64.9 °F 84% 30.14 in 10.0 mi Calm Calm - N/A   Clear
2:58 AM 69.1 °F 64.9 °F 87% 30.13 in 10.0 mi Calm Calm - N/A   Clear
3:58 AM 66.0 °F 63.0 °F 90% 30.11 in 10.0 mi SSE 3.5 mph - N/A   Clear
4:58 AM 64.0 °F 62.1 °F 93% 30.11 in 10.0 mi Calm Calm - N/A   Clear
5:58 AM 64.0 °F 62.1 °F 93% 30.12 in 10.0 mi Calm Calm - N/A   Clear
6:58 AM 66.0 °F 64.0 °F 93% 30.12 in 10.0 mi Calm Calm - N/A   Clear
7:58 AM 73.9 °F 69.1 °F 85% 30.12 in 10.0 mi SE 4.6 mph - N/A   Clear
8:58 AM 77.0 °F 69.1 °F 76% 30.11 in 10.0 mi SSE 6.9 mph - N/A   Clear
9:58 AM 78.1 °F 69.1 °F 74% 30.12 in 10.0 mi SSE 8.1 mph - N/A   Clear
10:58 AM 79.0 °F 70.0 °F 74% 30.13 in 10.0 mi SSE 15.0 mph - N/A   Partly Cloudy
11:58 AM 77.0 °F 69.1 °F 76% 30.12 in 10.0 mi South 16.1 mph 21.9 mph N/A   Scattered Clouds
12:58 PM 78.1 °F 69.1 °F 74% 30.10 in 10.0 mi SSE 11.5 mph - N/A   Partly Cloudy
1:58 PM 79.0 °F 68.0 °F 69% 30.09 in 10.0 mi South 11.5 mph - N/A   Partly Cloudy
2:58 PM 78.1 °F 70.0 °F 76% 30.07 in 10.0 mi South 11.5 mph - N/A   Clear
3:58 PM 75.9 °F 69.1 °F 79% 30.04 in 10.0 mi South 11.5 mph - N/A   Partly Cloudy
4:58 PM 75.9 °F 69.1 °F 79% 30.02 in 10.0 mi South 10.4 mph - N/A   Clear
5:58 PM 75.9 °F 69.1 °F 79% 30.01 in 10.0 mi South 11.5 mph - N/A   Clear
6:58 PM 75.0 °F 69.1 °F 82% 29.99 in 10.0 mi South 10.4 mph - N/A   Clear
7:58 PM 73.9 °F 70.0 °F 87% 29.99 in 10.0 mi South 8.1 mph - N/A   Clear
8:58 PM 73.9 °F 70.0 °F 87% 30.00 in 10.0 mi SSE 5.8 mph - N/A   Clear
9:18 PM 73.9 °F 70.0 °F 87% 30.00 in 10.0 mi SSE 5.8 mph - N/A   Mostly Cloudy
9:58 PM 73.9 °F 70.0 °F 87% 30.00 in 10.0 mi SSE 5.8 mph - N/A   Mostly Cloudy
10:14 PM 73.9 °F 70.0 °F 87% 30.00 in 10.0 mi South 6.9 mph - N/A   Mostly Cloudy
10:58 PM 73.0 °F 70.0 °F 90% 30.00 in 10.0 mi SSW 5.8 mph - N/A   Clear
11:58 PM 72.0 °F 69.1 °F 91% 29.99 in 10.0 mi SSW 6.9 mph - N/A   Clear